OBJECT F, 47937

Orbit data source: Space-Track

You're viewing an Uncataloged Satellite

Recently launched and/or uncataloged satellites may have evolving metadata. Metadata may include but not limited to: Owner, Maufacturer, Bus, Motor, and Mission.

OBJECT F, 47937 is a satellite in SSO that was launched on Mon, 22 Mar 2021 UTC via a SOYUZ-2-1A launch vehicle from the Tyuratam Missile And Space Complex (TTMTR). Unknown objects in Earth's orbit typically refer to objects detected orbiting the Earth but have not yet been identified or cataloged. These objects could be anything from previously untracked satellites, spent rocket stages, debris from satellite collisions, or even natural meteoroids temporarily captured by Earth's gravity.

Loading next visibility...
Identifier
47937, 2021-022F
Orbit
SSO
Country
Flag of TBDTBD
Related business
None
Manufacturer
Unknown
Mission
Amateur Technology
Bus & Motor
Unknown
Mass
Unknown
Launch date (UTC)
2021-03-22 (5 years ago)
Launch vehicle
SOYUZ-2-1A
Launch site
Tyuratam Missile And Space Complex (TTMTR)
Object type
Unknown
Shape & HBR
Box + 4 Pan, 0.3 m
Radar Cross Section
0.139 m², Medium (>0.1 m² and < 1m²)

Expand to show TLE details & history
Last TLE update: 17 hours ago

TLE from 17 hours ago
0 OBJECT F
1 47937U 21022F   25348.98118992  .00007285  00000-0  25795-3 0  9999
2 47937  97.4058 245.0958 0011820  35.8505 324.3527 15.29365191261520
Epoch: 2025-12-14T23:32Z
TLE epoch observation values (Epoch: 2025-12-14T23:32:54.809Z)
Latitude
0.00008°
Longitude
167.98111°
Altitude
474.228 km
Speed
7.632 km/s
True Right ascension
16h 20m 22s
True Declination
0° 00' 00"
Sunlit
Object was in daylight at epoch
Visualization orbit readout
Latitude
Unknown
Longitude
Unknown
Altitude
Unknown
Speed
Unknown
Apparent Right ascension
Unknown
Apparent Declination
Unknown
Sunlit
N/A
Visualization observer readout
Local Sidereal Time
15:08:56
Azimuth
Unknown
Elevation
Unknown
Doppler factor
Unknown
Orbital elements
Apogee altitude
482.762 km
Perigee altitude
466.562 km
Semi-major axis
6,852.799 km
Eccentricity
0.00118
Inclination
97.4058°
RAAN
245.0958°
Arg. of periapsis
35.8505°
True anomaly
324.27367°
Mean anomaly
324.3527°
Eccentric anomaly
324.31319°
Mean motion
3.82597 °/min
Orbital period
94.09 mins
BSTAR
0.00025795
Loading maneuver chart data...
Computing Atmospheric mass density...
Loading historical data...
Loading historical data...
Loading historical data...
Loading historical data...
Loading historical data...
Loading historical data...
Loading historical data...

Documentation

Showing up to 5 results
|